Juliana Airport, Sint Maarten

2:26 AM AST on September 25, 2017 (GMT -0400)
Princess Juliana International

Weather History for TNCM - October, 2011

Change the Weather History Date:

Wednesday, October 26, 2011

  Actual Average Record
Temperature  
Mean Temperature 84 °F -  
Max Temperature 87 °F 84 °F 89 °F (2000)
Min Temperature 80 °F 74 °F 73 °F (2007)
Cooling Degree Days 18    
Growing Degree Days 34 (Base 50)    
Moisture  
Dew Point 72 °F    
Average Humidity 69    
Maximum Humidity 79    
Minimum Humidity 54    
Precipitation  
Precipitation 0.00 in 0.17 in - ()
Sea Level Pressure  
Sea Level Pressure 29.87 in    
Wind  
Wind Speed 8 mph ()    
Max Wind Speed 14 mph    
Max Gust Speed -    
Visibility 7.3 miles    
Events      
Averages and records for this station are not official NWS values.
T = Trace of Precipitation, MM = Missing Value Source: Averaged Metar Reports

Daily Weather History Graph

Daily Weather History Graph

Search for Another Location

Airport or City:

Trip Planner

Search our weather history database for the weather conditions in past years. The results will help you decide how hot, cold, wet, or windy it might be!

Date:

Astronomy

Oct. 26, 2011 Rise Set
Actual Time 6:09 AM AST 5:43 PM AST
Civil Twilight 5:47 AM AST 6:05 PM AST
Nautical Twilight 5:21 AM AST 6:31 PM AST
Astronomical Twilight 4:55 AM AST 6:56 PM AST
Moon 5:45 AM AST (10/26) 5:32 PM AST (10/26)
Length of Visible Light 12h 18m
Length of Day
11h 34m
Waning Crescent, 0% of the Moon is Illuminated
Oct 26
Waning Crescent
Oct 26
New
Nov 2
First Quarter
Nov 10
Full
Nov 18
Last Quarter

Hourly Weather History & Observations

Time (AST) Temp. Heat Index Dew Point Humidity Pressure Visibility Wind Dir Wind Speed Gust Speed Precip Events Conditions
12:00 AM 82.4 °F 88.2 °F 73.4 °F 74% 29.89 in 6.2 mi East 9.2 mph - N/A   Scattered Clouds
1:00 AM 80.6 °F 85.4 °F 73.4 °F 79% 29.89 in 6.2 mi East 9.2 mph - N/A   Scattered Clouds
2:00 AM 81 °F - 72 °F 68% 29.88 in 19 mi East 6.9 mph - -   Partly Cloudy
2:00 AM 80.6 °F 84.6 °F 71.6 °F 74% 29.86 in 6.2 mi East 6.9 mph - N/A   Partly Cloudy
5:00 AM 81 °F - 71 °F 65% 29.83 in 19 mi East 9.2 mph - -   Scattered Clouds
5:00 AM 80.6 °F 84.6 °F 71.6 °F 74% 29.83 in 6.2 mi East 8.1 mph - N/A   Partly Cloudy
6:00 AM 80.6 °F 85.4 °F 73.4 °F 79% 29.83 in 6.2 mi East 9.2 mph - N/A   Partly Cloudy
7:00 AM 82.4 °F 88.2 °F 73.4 °F 74% 29.86 in 6.2 mi East 8.1 mph - N/A   Partly Cloudy
8:00 AM 83 °F - 72 °F 62% 29.88 in 31 mi East 6.9 mph - -   Scattered Clouds
8:00 AM 82.4 °F 87.2 °F 71.6 °F 70% 29.86 in 6.2 mi East 6.9 mph - N/A   Partly Cloudy
9:00 AM 84.2 °F 89.6 °F 71.6 °F 66% 29.89 in 6.2 mi East 10.4 mph - N/A   Scattered Clouds
10:00 AM 84.2 °F 89.6 °F 71.6 °F 66% 29.92 in 6.2 mi East 9.2 mph - N/A   Scattered Clouds
11:00 AM 85 °F - 73 °F 59% 29.91 in 31 mi ESE 9.2 mph - -   Mostly Cloudy
11:00 AM 86.0 °F 93.4 °F 73.4 °F 66% 29.89 in 6.2 mi ESE 9.2 mph - N/A   Mostly Cloudy
12:00 PM 86.0 °F 91.8 °F 71.6 °F 62% 29.89 in 6.2 mi East 8.1 mph - N/A   Scattered Clouds
1:00 PM 86.0 °F 91.8 °F 71.6 °F 62% 29.86 in 6.2 mi ESE 8.1 mph - N/A   Scattered Clouds
2:00 PM 86 °F - 72 °F 54% 29.84 in 31 mi ESE 11.5 mph - -   Scattered Clouds
2:00 PM 86.0 °F 90.4 °F 69.8 °F 58% 29.83 in 6.2 mi East 10.4 mph - N/A   Partly Cloudy
3:00 PM 86.0 °F 93.4 °F 73.4 °F 66% 29.83 in 6.2 mi East 13.8 mph - N/A   Mostly Cloudy
4:00 PM 84.2 °F 90.9 °F 73.4 °F 70% 29.83 in 6.2 mi East 11.5 mph - N/A   Scattered Clouds
5:00 PM 84 °F - 72 °F 59% 29.85 in 31 mi East 8.1 mph - -   Scattered Clouds
5:00 PM 84.2 °F 89.6 °F 71.6 °F 66% 29.83 in 6.2 mi East 9.2 mph - N/A   Partly Cloudy
6:00 PM 82.4 °F 88.2 °F 73.4 °F 74% 29.83 in 6.2 mi East 8.1 mph - N/A   Partly Cloudy
7:00 PM 82.4 °F 88.2 °F 73.4 °F 74% 29.86 in 6.2 mi East 10.4 mph - N/A   Partly Cloudy
8:00 PM 82 °F - 73 °F 67% 29.88 in 31 mi East 10.4 mph - -   Scattered Clouds
8:00 PM 82.4 °F 88.2 °F 73.4 °F 74% 29.86 in 6.2 mi East 10.4 mph - N/A   Partly Cloudy
9:00 PM 82.4 °F 88.2 °F 73.4 °F 74% 29.89 in 6.2 mi East 10.4 mph - N/A   Partly Cloudy
10:00 PM 82.4 °F 88.2 °F 73.4 °F 74% 29.89 in 6.2 mi East 5.8 mph - N/A   Partly Cloudy
11:00 PM 82 °F - 73 °F 68% 29.91 in 25 mi East 9.2 mph - -   Partly Cloudy
11:00 PM 80.6 °F 85.4 °F 73.4 °F 79% 29.89 in 6.2 mi East 9.2 mph - N/A   Scattered Clouds